Regional Weather Roundup
Issued by NWS

Home | Current Version | Previous Version | Text Only | Print | Product List | Glossary Off
Versions: 1 2 3 4 5 6 7 8 9 10 11 12 13 14 15 16 17 18 19 20 21 22 23 24 25 26 27 28 29 30 31 32 33 34 35 36 37 38 39 40 41 42 43 44 45 46 47 48 49 50

000
ASUS45 KCYS 141810
RWRWY

WYOMING REGIONAL WEATHER ROUNDUP
NATIONAL WEATHER SERVICE CHEYENNE WY
1200 PM MDT SUN SEP 14 2014

NOTE:  "FAIR" INDICATES FEW OR NO CLOUDS BELOW 12,000 FEET
WITH NO SIGNIFICANT WEATHER AND/OR OBSTRUCTIONS TO VISIBILITY.

WYZ001-141900-
YELLOWSTONE NATIONAL PARK

CITY           SKY/WX    TMP DP  RH WIND       PRES   REMARKS
LK YELLOWSTONE   N/A     62  21  20 VRB6      30.22F
6HR MIN TEMP:  27; 6HR MAX TEMP:  62;

W YELLOWSTONE  NOT AVBL

$$
WYZ002>013-054>058-071-098>099-141900-
NORTHERN WYOMING

CITY           SKY/WX    TMP DP  RH WIND       PRES   REMARKS
JACKSON        SUNNY     63  30  29 CALM      30.16F
CODY           SUNNY     55  37  50 NE7       30.09S
GREYBULL       SUNNY     60  37  42 N6        30.06F
6HR MIN TEMP:  36; 6HR MAX TEMP:  60;

WORLAND        SUNNY     56  38  50 VRB3      30.07F
6HR MIN TEMP:  35; 6HR MAX TEMP:  56;

SHERIDAN       SUNNY     55  39  54 VRB5      30.10S
6HR MIN TEMP:  32; 6HR MAX TEMP:  55;

BUFFALO        SUNNY     54  36  50 N10       30.11R
6HR MIN TEMP:  36; 6HR MAX TEMP:  55;

GILLETTE       SUNNY     55  40  56 SE12      30.09S
6HR MIN TEMP:  31; 6HR MAX TEMP:  55;

HULETT         CLOUDY    52  37  58 MISG      30.12
NEWCASTLE      FAIR      54  36  50 S5        30.11

$$
WYZ014>020-022>026-101>103-141900-
CENTRAL WYOMING

CITY           SKY/WX    TMP DP  RH WIND       PRES   REMARKS
BIG PINEY      MOSUNNY   66  30  26 VRB6      30.19F
6HR MIN TEMP:  30; 6HR MAX TEMP:  66;

PINEDALE       PTCLDY    68  23  18 NW13      30.19F
DUBOIS         FAIR      68  12  11 NW30G40   30.12F
LANDER         MOSUNNY   62  36  37 SE8       30.07F
6HR MIN TEMP:  37; 6HR MAX TEMP:  62;

RIVERTON       SUNNY     59  33  37 VRB5      30.09F
6HR MIN TEMP:  36; 6HR MAX TEMP:  59;

CASPER         MOSUNNY   67  34  29 SW8       30.06F
6HR MIN TEMP:  33; 6HR MAX TEMP:  67;

DOUGLAS        MOSUNNY   59  39  47 VRB5      30.08F
6HR MIN TEMP:  33; 6HR MAX TEMP:  59;


$$
WYZ021-027>030-104>119-141900-
SOUTHERN WYOMING

CITY           SKY/WX    TMP DP  RH WIND       PRES   REMARKS
EVANSTON       PTSUNNY   73  31  21 W16       30.22S
6HR MIN TEMP:  49; 6HR MAX TEMP:  75;

KEMMERER       CLEAR     70  28  21 W13G18    30.22S
FORT BRIDGER   FAIR      75  31  19 W20G26    30.24S
ROCK SPRINGS   SUNNY     74  25  16 W20G32    30.17F
6HR MIN TEMP:  50; 6HR MAX TEMP:  75;

DIXON          FAIR      71  36  27 SW13G18   30.20F
RAWLINS        MOSUNNY   73  28  18 SW16G29   30.16F
6HR MIN TEMP:  39; 6HR MAX TEMP:  74;

SARATOGA       FAIR      72  32  23 W20G31    30.19S
LARAMIE        MOSUNNY   72  33  24 SW21G28   30.17F
6HR MIN TEMP:  40; 6HR MAX TEMP:  72;

CHEYENNE       MOSUNNY   80  31  16 W20G30    30.11F
6HR MIN TEMP:  43; 6HR MAX TEMP:  81;

TORRINGTON     CLOUDY    51  46  83 VRB5      30.07F
6HR MIN TEMP:  39; 6HR MAX TEMP:  51;

PINE BLUFFS    FAIR      77  37  24 CALM      30.05F

$$



USA.gov is the U.S. government's official web portal to all federal, state and local government web resources and services.